Location: Holyhead Bay
(53.3667°N, 4.6667°W)
Time: 18:37:54
(UTC+00:00)

Aureole 2 Rocket - Visible Passes

Search period start: 16 April 2021 00:00
Search period end: 26 April 2021 00:00
Orbit: 276 x 342 km, 73.9° (Epoch: 15 April)

Date Brightness Start Highest point End Pass type
(mag) Time Alt. Az. Time Alt. Az. Time Alt. Az.
16 Apr 5.4 01:04:10 10° N 01:04:10 10° N 01:04:11 10° N visible
19 Apr 5.3 00:08:13 10° NNE 00:08:13 10° NNE 00:08:15 10° NNE visible
20 Apr 5.2 00:19:23 12° N 00:19:23 12° N 00:19:39 10° N visible
21 Apr 5.2 00:30:19 10° NNW 00:30:19 10° NNW 00:30:28 10° NNW visible
21 Apr 4.8 23:10:23 12° NNE 23:10:23 12° NNE 23:10:37 10° NNE visible
22 Apr 4.6 23:20:52 17° N 23:20:52 17° N 23:21:39 10° NNE visible
23 Apr 4.6 23:31:07 17° NNW 23:31:07 17° NNW 23:32:16 10° N visible
24 Apr 3.9 22:10:28 17° NE 22:10:28 17° NE 22:11:15 10° NE visible
24 Apr 4.9 23:41:06 11° NW 23:41:22 11° NW 23:42:13 10° NNW visible
25 Apr 2.7 22:20:10 39° NNE 22:20:10 39° NNE 22:21:54 10° NNE visible
